Other Surface Observations
Issued by NWS Tucson, AZ

Home | Current Version | Previous Version | Text Only | Print | Product List | Glossary On
Versions: 1 2 3 4 5 6 7 8 9 10 11 12 13 14 15 16 17 18 19 20 21 22 23 24 25 26 27 28 29 30 31 32 33 34 35 36 37 38 39 40 41 42 43 44 45 46 47 48 49 50
000
SXUS55 KTWC 172216
OSOTWC

WEATHER ROUNDUP FOR SOUTHEAST ARIZONA
NATIONAL WEATHER SERVICE TUCSON AZ
315 PM MST WED SEP 17 2014

AZZ504>506-514-172315-
LOCATION       SKY/WX    TMP DP  RH WIND       PRES   REMARKS
TUCSON         CLOUDY    82  66  58 SE15      29.84F
DAVIS-MONTHAN  CLOUDY    81  66  59 SE13      29.82F
CHILDRENS PARK N/A       79  67  67 SE9               PIMA CO DEQ
ALVERNON/22ND  N/A      N/A N/A N/A N/A               PIMA CO DEQ
CHERRY/GLENN   N/A      N/A N/A N/A N/A               PIMA CO DEQ
TANGERINE      N/A       80 N/A N/A NE3               PIMA CO DEQ
CONTL RANCH    N/A       80  71  73 NE3               PIMA CO DEQ
GRANT/1ST      N/A       80  67  64 E6                PIMA CO DEQ
CRAYCROFT/22ND N/A      N/A N/A N/A N/A               PIMA CO DEQ
GOLFLINKS/KOLB N/A       80  68  66 NE6               PIMA CO DEQ
AJO/12TH       N/A       80  67  65 E6                PIMA CO DEQ
SAGUARO EAST   N/A      N/A N/A N/A N/A               PIMA CO DEQ
FAIRGROUNDS    N/A       78 N/A N/A E14               PIMA CO DEQ
SAGUARO        N/A       83  64  52 NE7G15            *SABINO CYN
SAN CARLOS     N/A       77  67  71 SE5G13            *SAN CARLOS
GREEN VALLEY   N/A       78  66  67 E4                PIMA CO DEQ
HORSE CAMP CYN N/A       70  65  85 E9G14             *ARAVAIPA CYN
RINCON MTNS    N/A       55  55  100 SE5G13           *NR MANNING CAMP
$$

AZZ509>511-172315-
LOCATION       SKY/WX    TMP DP  RH WIND       PRES   REMARKS
SAFFORD        LGT RAIN  77  69  76 S7        29.90F
STRAY HORSE    N/A       63  57  80 E3                *
TRAIL CABIN    N/A       66  60  81 E3                *N OF GRANVILLE
BLACK HILLS    N/A       74  70  87 NW3               *N OF FT THOMAS
DRY LAKE       N/A       60  60  99 E3G10             *NATANES MTNS
NOON CREEK     N/A       68  63  84 SW4               *PINALENO MTNS
COLUMBINE      N/A       52  49  88 SE3G10            *PINALENO MTNS
GUTHRIE        N/A       66  62  88 E6G13             *SW OF GUTHRIE
$$

AZZ502-503-513-172315-
LOCATION       SKY/WX    TMP DP  RH WIND       PRES   REMARKS
NOGALES        HVY RAIN  65  64  97 S5        29.90F FOG
SELLS          N/A       82  70  68 E10G15            *
SASABE         N/A       75  64  69 CALM              *ALTAR VLY
HOPKINS        N/A       57  57  100 E29G41           *SANTA RITA MTNS
CARR CYN       N/A       63  61  93 E5G15             *W OF HEREFORD
$$

AZZ507-508-512-172315-
LOCATION       SKY/WX    TMP DP  RH WIND       PRES   REMARKS
SIERRA VISTA   LGT RAIN  66  64  94 E16G23    29.97F
DOUGLAS        RAIN      67  64  90 SE9       29.98F FOG
EMPIRE MTNS    N/A       68  62  81 SE9G16            *LAS CIENEGAS NCA
MULESHOE RANCH N/A       72  63  74 SE9G17            *PRESERVE
HEADQUARTERS   N/A       66  63  90 N2                *CHIRICAHUA MTNS
$$

.............................NOTES.............................
THIS IS AN AUTOMATED COLLECTIVE WITH MINIMAL QUALITY CONTROL.
PIMA CO DEQ SITES HAVE NONSTANDARD WIND SENSOR HEIGHTS.
PIMA CO DEQ SITES DO NOT REPORT WIND GUSTS.
* INDICATES WIND SENSORS LOCATED AT 20 FEET INSTEAD OF 33 FEET.
..............................KEY..............................
SKY/WX - SKY CONDITION/WEATHER
TMP    - TEMPERATURE IN FAHRENHEIT
DP     - DEWPOINT IN FAHRENHEIT
RH     - RELATIVE HUMIDITY IN PERCENT
WIND   - DIRECTION AND SPEED IN MILES PER HOUR (MPH)
VRB    - VARIABLE WIND DIRECTION
PRES   - MEAN SEA LEVEL PRESSURE IN INCHES OF MERCURY
         F - FALLING PRESSURE   R - RISING PRESSURE
         S - STEADY PRESSURE
VSB    - VISIBILITY IN MILES
HX     - HEAT INDEX IN FAHRENHEIT
WCI    - WIND CHILL INDEX IN FAHRENHEIT
N/A    - NOT AVAILABLE
AFB    - AIR FORCE BASE
         DAVIS-MONTHAN IS DAVIS-MONTHAN AIR FORCE BASE
CYN    - CANYON
MTNS   - MOUNTAINS
NCA    - NATIONAL CONSERVATION AREA
NR     - NEAR
VLY    - VALLEY
CONTL  - CONTINENTAL
PIMA CO DEQ - PIMA COUNTY DEPT OF ENVIRONMENTAL QUALITY



USA.gov is the U.S. government's official web portal to all federal, state and local government web resources and services.